PulseSat

PulseSat

COSMOS 2457 (733)

Last updated on Jan. 18, 2019, 3 a.m. UTC

1 36112U 09070B   19017.58422834  .00000062  00000-0  00000+0 0  9990
2 36112  64.1762 163.6798 0006676 149.5114 259.0913  2.13101526 70772
UTC
Height (km)
Latitude
Longitude
Inclination
Orbital Period

Next 30 passes for location: Hong Kong

Rise time Rise Azimuth (degrees) Set time Set Azimuth (degrees) Duration Max altitude (degrees)

No matching passes for this satellites

PulseSat

PulseSat is the new satellites software and hardware trackering solution by Pulsely.
Satellite Two Line Element Set source: US Air Force Space Command

Download PulseSat for iOS
© 2017 Pulsely Limited